Regional Weather Roundup
Issued by NWS

Home | Current Version | Previous Version | Graphics & Text | Print | Product List | Glossary Off
Versions: 1 2 3 4 5 6 7 8 9 10 11 12 13 14 15 16 17 18 19 20 21 22 23 24 25 26 27 28 29 30 31 32 33 34 35 36 37 38 39 40 41 42 43 44 45 46 47 48 49 50

000
ASUS43 KMPX 220401
RWRMN
WEATHER ROUNDUP FOR MINNESOTA
NATIONAL WEATHER SERVICE TWIN CITIES/CHANHASSEN MN
1100 PM CDT SUN SEP 21 2014


NOTE: "FAIR" INDICATES FEW OR NO CLOUDS BELOW 12,000 FEET WITH NO
SIGNIFICANT WEATHER AND/OR OBSTRUCTIONS TO VISIBILITY. N/A MEANS
CURRENT SKY AND/OR WEATHER CONDITIONS ARE NOT AVAILABLE.

MNZ060>063-068>070-220500-
   Twin Cities Metro

CITY           SKY/WX    TMP DP  RH WIND       PRES   REMARKS
TWIN CITIES    CLEAR     55  48  77 NW7       30.22R
ST PAUL        CLEAR     52  48  86 NW5       30.23R
CRYSTAL        CLEAR     54  48  80 W3        30.22R
BLAINE         CLEAR     52  50  93 CALM      30.22S
LAKEVILLE      CLEAR     50  48  93 W6        30.23R
EDEN PRAIRIE   CLEAR     54  51  90 NW5       30.22R
SOUTH ST PAUL  CLEAR     52  47  84 CALM      30.22R
LAKE ELMO      FAIR      46  46 100 CALM      30.22S
$$
MNZ001>005-007-008-013>017-022>024-027-028-220500-
   Northwest Minnesota

CITY           SKY/WX    TMP DP  RH WIND       PRES   REMARKS
BEMIDJI        CLEAR     49  47  92 SW3       30.21S
HALLOCK        CLEAR     48  46  93 S7        30.16S
ROSEAU         CLEAR     48  45  87 SW6       30.16F
WARROAD        CLEAR     52  46  82 SW6       30.17S
THIEF RVR FALL CLEAR     48  46  93 CALM      30.19S
CROOKSTON      CLEAR     50  48  93 S6        30.20S
FOSSTON        CLEAR     45  43  93 CALM      30.22S
DETROIT LAKES  CLEAR     48  46  93 S3        30.24S FOG
MOORHEAD       CLEAR     52  52 100 SE6       30.22F
PARK RAPIDS    CLEAR     44  42  93 CALM      30.22S
MAHNOMEN       FAIR      46  45  95 S5        30.22S
$$
MNZ006-009>011-018-025>026-220500-
   North Central Minnesota

CITY           SKY/WX    TMP DP  RH WIND       PRES   REMARKS
BAUDETTE       CLEAR     49  47  93 CALM      30.16F
FLAG ISLAND    CLEAR     54  50  87 SW8       30.13S
INTL FALLS     PTCLDY    49  47  93 W6        30.16S
WASKISH        PTCLDY    55  52  88 CALM      30.18F
BIG FORK       CLEAR     48  46  93 CALM      30.20S
LONGVILLE      CLEAR     45  43  93 CALM      30.21F
GRAND RAPIDS   CLEAR     48  45  87 CALM      30.20S
CRANE LAKE     CLOUDY    52  48  87 CALM      30.17S
ORR            CLOUDY    50  46  87 CALM      30.15S
COOK           MOCLDY    50  46  87 CALM      30.17F
WALKER         FAIR      44  44  99 CALM      30.22S
$$
MNZ012-019>021-037-220500-
   Northeast Minnesota

CITY           SKY/WX    TMP DP  RH WIND       PRES   REMARKS
DULUTH         CLEAR     49  43  80 CALM      30.18S
ELY            PTCLDY    45  43  93 CALM      30.16S
HIBBING        MOCLDY    45  42  89 CALM      30.18S
EVELETH        CLEAR     43  43 100 CALM      30.18S
DULUTH HARBOR  CLEAR     54  48  82 CALM      30.18F
TWO HARBORS    CLEAR     45  39  81 NW5       30.15F
SILVER BAY     CLEAR     39  39 100 CALM      30.15S
GRAND MARAIS     N/A     45  42  89 CALM      30.14R
G MARAIS ARPRT CLEAR     43  37  81 CALM      30.14S
$$
MNZ029>031-032-039>041-046>048-054>057-064-220500-
   West Central Minnesota

CITY           SKY/WX    TMP DP  RH WIND       PRES   REMARKS
FERGUS FALLS   CLEAR     52  48  87 SE5       30.24S
WHEATON        CLEAR     48  46  93 SE5       30.26S
MORRIS         CLEAR     48  46  93 SE3       30.24S FOG
ALEXANDRIA     CLEAR     47  45  93 CALM      30.25S
ELBOW LAKE     FAIR      51  48  90 SE3       30.24S
WADENA         CLEAR     45  45 100 CALM      30.23S FOG
GLENWOOD       CLEAR     48  46  93 CALM      30.25S
APPLETON       CLEAR     48  46  93 CALM      30.24F
BENSON         CLEAR     46  46 100 CALM      30.25S FOG
ORTONVILLE     CLEAR     52  46  82 SW3       30.25S
MADISON        CLEAR     50  48  93 CALM      30.25F
WILLMAR        FAIR      48  45  87 CALM      30.27R
$$
MNZ033>034-036-042>043-049>051-058-059-220500-
   Central Minnesota

CITY           SKY/WX    TMP DP  RH WIND       PRES   REMARKS
ST CLOUD       CLEAR     53  48  83 NW3       30.23S
SAUK CENTRE    FAIR      45  44  97 CALM      30.24F
PAYNESVILLE    CLEAR     45  45 100 CALM      30.25S
AITKIN         CLEAR     50  45  81 CALM      30.20S
PINE RIVER     CLEAR     45  43  93 CALM      30.25S
BRAINERD       CLEAR     48  46  93 CALM      30.23S
STAPLES        CLEAR     45  45 100 CALM      30.24S
LONG PRAIRIE     N/A     45  45 100 CALM      30.24F
LITTLE FALLS   CLEAR     46  45  93 CALM      30.24S FOG
LITCHFIELD     CLEAR     52  50  93 CALM      30.25S
BUFFALO        CLEAR     54  49  83 W5        30.25R
MAPLE LAKE     CLEAR     54  51  89 NW6       30.25S
$$
MNZ037-044-045-052-053-220500-
   East Central Minnesota

CITY           SKY/WX    TMP DP  RH WIND       PRES   REMARKS
PRINCETON      CLEAR     50  46  87 W2        30.23S
MORA           CLEAR     45  43  93 CALM      30.23S
CAMBRIDGE      CLEAR     48  43  81 CALM      30.20F
RUSH CITY      MOCLDY    46  44  94 CALM      30.21F
MOOSE LAKE     CLEAR     45  43  93 CALM      30.18S
HINCKLEY       FAIR      46  45  93 CALM      30.21S
CLOQUET        CLEAR     45  43  93 W5        30.18F
MCGREGOR       CLEAR     46  45  93 NW3       30.21S
$$
MNZ071>073-080-081-089-090-097-098-220500-
   Southwest Minnesota

CITY           SKY/WX    TMP DP  RH WIND       PRES   REMARKS
MONTEVIDEO     CLEAR     50  46  87 CALM      30.26S
GRANITE FALLS  CLEAR     43  42  97 CALM      30.27S
CANBY          CLEAR     47  46  93 CALM      30.27S
MARSHALL       CLEAR     46  43  87 CALM      30.25S
REDWOOD FALLS  CLEAR     54  49  83 N3        30.25S
OLIVIA         CLEAR     50  46  87 CALM      30.24F
PIPESTONE      CLEAR     46  45  93 CALM      30.27S
WINDOM         CLEAR     48  45  87 CALM      30.26S
WORTHINGTON    CLEAR     46  43  87 CALM      30.28S
JACKSON        CLEAR     46  43  87 CALM      30.27S
TRACY          CLEAR     52  48  87 CALM      30.27R
SLAYTON        CLEAR     49  46  87 CALM      30.27F
$$
MNZ065>067-074>077-082>085-091>093-220500-
   South Central Minnesota

CITY           SKY/WX    TMP DP  RH WIND       PRES   REMARKS
MANKATO        CLEAR     54  45  71 NW7       30.25R
NEW ULM        CLEAR     52  48  87 NW3       30.25S
ST JAMES       CLEAR     50  46  87 CALM      30.27R
FAIRMONT       CLEAR     50  45  81 N5        30.25S
GLENCOE        CLEAR     53  48  82 NW5       30.24S
FARIBAULT      CLEAR     52  46  82 CALM      30.24R
OWATONNA       CLEAR     48  46  93 CALM      30.24R
WASECA         CLEAR     46  43  87 NW3       30.26R
ALBERT LEA     CLEAR     52  48  87 CALM      30.23S
$$
MNZ078>079-086>088-094>096-220500-
   Southeast Minnesota

CITY           SKY/WX    TMP DP  RH WIND       PRES   REMARKS
ROCHESTER      CLEAR     50  46  86 N6        30.23R
RED WING       CLEAR     48  46  93 CALM      30.21R
STANTON        CLEAR     47  45  92 S3        30.22R
DODGE CENTER   PTCLDY    52  48  87 NW3       30.23R
WINONA         CLEAR     48  46  93 CALM      30.22R
AUSTIN         CLEAR     50  46  87 N3        30.23R
PRESTON        CLEAR     49  48  95 NW5       30.22S
$$
ABBREVIATIONS USED IN REMARKS
   TC - TEMPERATURES IN CELSIUS
  WCI - WIND CHILL INDEX
   HX - HEAT INDEX
  VSB - VISIBILITY
$$



USA.gov is the U.S. government's official web portal to all federal, state and local government web resources and services.